Change the Weather History Date:

Sunday, February 3, 2013

  Actual Average Record
Temperature  
Mean Temperature 48 °F -  
Max Temperature 57 °F 57 °F 73 °F (1934)
Min Temperature 39 °F 29 °F 13 °F (1972)
Degree Days  
Heating Degree Days 17    
Moisture  
Dew Point 31 °F    
Average Humidity 56    
Maximum Humidity 75    
Minimum Humidity 36    
Precipitation  
Precipitation 0.00 in - - ()
Sea Level Pressure  
Sea Level Pressure 30.18 in    
Wind  
Wind Speed 2 mph (SW)    
Max Wind Speed 7 mph    
Max Gust Speed -    
Visibility 10 miles    
Events      
Averages and records for this station are not official NWS values.
T = Trace of Precipitation, MM = Missing Value Source: NWS Daily Summary

Daily Weather History Graph

Daily Weather History Graph

Search for Another Location

Airport or City:

Trip Planner

Search our weather history database for the weather conditions in past years. The results will help you decide how hot, cold, wet, or windy it might be!

Date:

Astronomy

Feb. 03, 2013 Rise Set
Actual Time 7:35 AM MST 6:01 PM MST
Civil Twilight 7:07 AM MST 6:29 PM MST
Nautical Twilight 6:36 AM MST 7:00 PM MST
Astronomical Twilight 6:06 AM MST 7:30 PM MST
Moon 1:06 AM MST (2/3) 11:42 AM MST (2/3)
Length of Visible Light 11h 21m
Length of Day
10h 26m
Waning Gibbous, 48% of the Moon is Illuminated
Feb 3
Waning Gibbous
Feb 10
New
Feb 17
First Quarter
Feb 25
Full
Mar 4
Last Quarter

Hourly Weather History & Observations

Time (MST) Temp. Windchill Dew Point Humidity Pressure Visibility Wind Dir Wind Speed Gust Speed Precip Events Conditions
12:15 AM 46.4 °F - 30.2 °F 53% 30.31 in 10.0 mi Calm Calm - N/A   Clear
12:35 AM 44.6 °F 42.2 °F 30.2 °F 57% 30.30 in 10.0 mi South 4.6 mph - N/A   Clear
12:55 AM 44.6 °F - 32.0 °F 61% 30.29 in 10.0 mi Calm Calm - N/A   Clear
1:15 AM 44.6 °F 43.1 °F 30.2 °F 57% 30.29 in 10.0 mi SSW 3.5 mph - N/A   Clear
1:35 AM 42.8 °F 39.3 °F 30.2 °F 61% 30.27 in 10.0 mi North 5.8 mph - N/A   Clear
1:55 AM 42.8 °F - 30.2 °F 61% 30.27 in 10.0 mi Calm Calm - N/A   Clear
2:15 AM 41.0 °F - 30.2 °F 65% 30.27 in 10.0 mi Calm Calm - N/A   Clear
2:55 AM 42.8 °F - 30.2 °F 61% 30.26 in 10.0 mi Calm Calm - N/A   Clear
3:15 AM 41.0 °F - 30.2 °F 65% 30.26 in 10.0 mi Calm Calm - N/A   Clear
3:35 AM 39.2 °F - 30.2 °F 70% 30.25 in 10.0 mi Calm Calm - N/A   Clear
3:55 AM 39.2 °F - 30.2 °F 70% 30.24 in 10.0 mi Calm Calm - N/A   Clear
4:15 AM 39.2 °F - 30.2 °F 70% 30.24 in 10.0 mi Calm Calm - N/A   Clear
4:35 AM 39.2 °F - 30.2 °F 70% 30.23 in 10.0 mi Calm Calm - N/A   Clear
4:55 AM 39.2 °F 37.0 °F 32.0 °F 75% 30.22 in 10.0 mi SW 3.5 mph - N/A   Clear
5:15 AM 39.2 °F - 30.2 °F 70% 30.23 in 10.0 mi Calm Calm - N/A   Partly Cloudy
5:35 AM 39.2 °F 34.2 °F 30.2 °F 70% 30.23 in 10.0 mi South 6.9 mph - N/A   Clear
5:55 AM 39.2 °F 35.9 °F 30.2 °F 70% 30.22 in 10.0 mi SSW 4.6 mph - N/A   Partly Cloudy
6:15 AM 41.0 °F - 30.2 °F 65% 30.22 in 10.0 mi Calm Calm - N/A   Mostly Cloudy
6:35 AM 39.2 °F 35.9 °F 30.2 °F 70% 30.22 in 10.0 mi NNW 4.6 mph - N/A   Overcast
6:55 AM 39.2 °F - 32.0 °F 75% 30.23 in 10.0 mi Calm Calm - N/A   Mostly Cloudy
7:15 AM 39.2 °F 35.0 °F 32.0 °F 75% 30.22 in 10.0 mi NE 5.8 mph - N/A   Overcast
7:35 AM 39.2 °F 37.0 °F 32.0 °F 75% 30.23 in 10.0 mi South 3.5 mph - N/A   Overcast
7:55 AM 41.0 °F 38.0 °F 32.0 °F 70% 30.23 in 10.0 mi SW 4.6 mph - N/A   Overcast
8:15 AM 41.0 °F 38.0 °F 30.2 °F 65% 30.23 in 10.0 mi East 4.6 mph - N/A   Overcast
8:35 AM 42.8 °F 41.1 °F 32.0 °F 66% 30.24 in 10.0 mi West 3.5 mph - N/A   Overcast
8:55 AM 41.0 °F 38.0 °F 32.0 °F 70% 30.24 in 10.0 mi North 4.6 mph - N/A   Overcast
9:15 AM 41.0 °F 36.4 °F 32.0 °F 70% 30.22 in 10.0 mi NE 6.9 mph - N/A   Overcast
9:35 AM 41.0 °F 39.0 °F 32.0 °F 70% 30.22 in 10.0 mi NNE 3.5 mph - N/A   Overcast
9:55 AM 42.8 °F - 30.2 °F 61% 30.22 in 10.0 mi Calm Calm - N/A   Overcast
10:15 AM 44.6 °F - 30.2 °F 57% 30.23 in 10.0 mi Calm Calm - N/A   Mostly Cloudy
10:35 AM 46.4 °F - 30.2 °F 53% 30.23 in 10.0 mi Calm Calm - N/A   Scattered Clouds
10:55 AM 46.4 °F - 32.0 °F 57% 30.23 in 10.0 mi Calm Calm - N/A   Clear
11:15 AM 46.4 °F - 32.0 °F 57% 30.23 in 10.0 mi Calm Calm - N/A   Mostly Cloudy
11:35 AM 48.2 °F - 30.2 °F 50% 30.22 in 10.0 mi Calm Calm - N/A   Scattered Clouds
11:55 AM 48.2 °F - 28.4 °F 46% 30.21 in 10.0 mi Calm Calm - N/A   Scattered Clouds
12:15 PM 48.2 °F - 30.2 °F 50% 30.20 in 10.0 mi West 3.5 mph - N/A   Scattered Clouds
12:35 PM 48.2 °F - 30.2 °F 50% 30.19 in 10.0 mi WSW 3.5 mph - N/A   Partly Cloudy
1:15 PM 51.8 °F - 30.2 °F 44% 30.16 in 10.0 mi Calm Calm - N/A   Clear
1:35 PM 51.8 °F - 30.2 °F 44% 30.15 in 10.0 mi Calm Calm - N/A   Mostly Cloudy
1:55 PM 53.6 °F - 30.2 °F 41% 30.14 in 10.0 mi NNW 3.5 mph - N/A   Scattered Clouds
2:15 PM 53.6 °F - 30.2 °F 41% 30.13 in 10.0 mi Calm Calm - N/A   Clear
2:35 PM 55.4 °F - 30.2 °F 38% 30.12 in 10.0 mi Calm Calm - N/A   Clear
2:55 PM 55.4 °F - 30.2 °F 38% 30.12 in 10.0 mi Calm Calm - N/A   Clear
3:15 PM 55.4 °F - 30.2 °F 38% 30.11 in 10.0 mi Calm Calm - N/A   Clear
3:35 PM 57.2 °F - 30.2 °F 36% 30.10 in 10.0 mi Calm Calm - N/A   Clear
3:55 PM 57.2 °F - 30.2 °F 36% 30.10 in 10.0 mi Calm Calm - N/A   Clear
4:15 PM 57.2 °F - 30.2 °F 36% 30.10 in 10.0 mi Calm Calm - N/A   Clear
4:35 PM 57.2 °F - 30.2 °F 36% 30.10 in 10.0 mi Calm Calm - N/A   Clear
4:55 PM 57.2 °F - 30.2 °F 36% 30.09 in 10.0 mi Calm Calm - N/A   Clear
5:15 PM 57.2 °F - 30.2 °F 36% 30.09 in 10.0 mi West 3.5 mph - N/A   Clear
5:35 PM 57.2 °F - 30.2 °F 36% 30.09 in 10.0 mi NW 3.5 mph - N/A   Clear
5:55 PM 55.4 °F - 30.2 °F 38% 30.10 in 10.0 mi Calm Calm - N/A   Clear
6:15 PM 55.4 °F - 30.2 °F 38% 30.10 in 10.0 mi Calm Calm - N/A   Clear
6:35 PM 53.6 °F - 30.2 °F 41% 30.10 in 10.0 mi Calm Calm - N/A   Clear
6:55 PM 51.8 °F - 30.2 °F 44% 30.10 in 10.0 mi Calm Calm - N/A   Clear
7:15 PM 51.8 °F - 30.2 °F 44% 30.11 in 10.0 mi South 4.6 mph - N/A   Clear
7:35 PM 48.2 °F - 30.2 °F 50% 30.11 in 10.0 mi SSE 5.8 mph - N/A   Clear
7:55 PM 46.4 °F 45.2 °F 32.0 °F 57% 30.11 in 10.0 mi South 3.5 mph - N/A   Clear
8:15 PM 46.4 °F - 32.0 °F 57% 30.12 in 10.0 mi Calm Calm - N/A   Clear
8:35 PM 46.4 °F 44.3 °F 30.2 °F 53% 30.12 in 10.0 mi NNW 4.6 mph - N/A   Clear
8:55 PM 46.4 °F 43.5 °F 30.2 °F 53% 30.13 in 10.0 mi NNE 5.8 mph - N/A   Clear
9:15 PM 44.6 °F 43.1 °F 30.2 °F 57% 30.13 in 10.0 mi NNW 3.5 mph - N/A   Clear
9:35 PM 44.6 °F 42.2 °F 30.2 °F 57% 30.13 in 10.0 mi South 4.6 mph - N/A   Clear
9:55 PM 42.8 °F 40.1 °F 30.2 °F 61% 30.14 in 10.0 mi ESE 4.6 mph - N/A   Clear
10:15 PM 48.2 °F - 30.2 °F 50% 30.14 in 10.0 mi East 4.6 mph - N/A   Clear
10:35 PM 44.6 °F 43.1 °F 30.2 °F 57% 30.15 in 10.0 mi South 3.5 mph - N/A   Clear
10:55 PM 42.8 °F - 30.2 °F 61% 30.15 in 10.0 mi Calm Calm - N/A   Clear
11:15 PM 42.8 °F - 30.2 °F 61% 30.15 in 10.0 mi Calm Calm - N/A   Clear
11:55 PM 41.0 °F 37.1 °F 30.2 °F 65% 30.15 in 10.0 mi South 5.8 mph - N/A   Clear